Location: ??????
(31.2056°N, 45.3906°E)
Time: 16:47:02
(UTC+00:00)

ISS - Pass Details

Date: 09 April 2020
Orbit: 417 x 419 km, 51.6° (Epoch: 27 May)

Event Time Altitude Azimuth Distance (km) Brightness Sun altitude
Rises 15:56:56 0° 309° (NW) 2,359 1.4 -7.9°
Reaches altitude 10° 15:59:04 10° 304° (NW) 1,492 0.4 -8.3°
Maximum altitude 16:02:18 48° 229° (SW) 553 -2.9 -9.0°
Drops below altitude 10° 16:05:31 10° 153° (SSE) 1,482 -1.4 -9.7°
Enters shadow 16:06:14 - 151° (SSE) 1,764 -1.0 -9.8°
